Flag for Germany

Past Weather in Bitterfeld-Wolfen, Saxony-Anhalt, Germany — Yesterday and Last 2 Weeks

Now
72 °F

Sunny.


Feels Like: 72 °F
Forecast: 73 / 66 °F
Wind: 6 mph from Southwest

Location: Leipzig-Schkeuditz
Current Time: Aug 14, 2020 at 11:33:11 am
Latest Report: Aug 14, 2020 at 10:50 am
Visibility: 10 mi
Pressure29.92 "Hg
Humidity: 78%
Dew Point: 64 °F
Location of Bitterfeld-WolfenLocation

Past Weather in Bitterfeld-Wolfen — Graph

°F

Bitterfeld-Wolfen Temperature Yesterday

Maximum temperature yesterday: 88 °F (at 1:50 pm)
Minimum temperature yesterday: 68 °F (at 4:20 am)
Average temperature yesterday: 77 °F

High & Low Weather Summary for the Past Weeks

 TemperatureHumidityPressure
High97 °F (Aug 8, 3:50 pm)100% (Aug 2, 11:50 pm)30.18 "Hg (Aug 2, 11:50 pm)
Low54 °F (Jul 31, 5:50 am)20% (Aug 6, 3:20 pm)29.83 "Hg (Aug 3, 6:50 pm)
Average74 °F55%30.03 "Hg
* Reported Jul 30 10:20 am — Aug 14 10:20 am, Bitterfeld-Wolfen. Weather by CustomWeather, © 2020

Note: Actual official high and low records may vary slightly from our data, if they occured in-between our weather recording intervals... More about our weather records

Bitterfeld-Wolfen Weather History for the Previous 24 Hours

Scroll right to see more
 ConditionsComfort  
Time TempWeatherWind HumidityBarometerVisibility
10:20 am
Fri, Aug 14
72 °FSunny.6 mph78%29.92 "Hg10 mi
9:50 am70 °FSunny.8 mph83%29.92 "Hg10 mi
9:20 am70 °FSunny.10 mph83%29.92 "Hg10 mi
8:50 am70 °FSunny.8 mph83%29.92 "Hg10 mi
8:20 am70 °FLight rain. Passing clouds.6 mph88%29.92 "HgN/A
7:50 am68 °FLight rain. Passing clouds.6 mph94%29.92 "HgN/A
7:20 am68 °FSunny.7 mph94%29.92 "Hg10 mi
6:50 am68 °FPassing clouds.5 mph88%29.89 "HgN/A
6:20 am68 °FPassing clouds.3 mph88%29.92 "HgN/A
5:50 am68 °FClear.3 mph88%29.92 "Hg10 mi
5:20 am68 °FClear.8 mph88%29.92 "Hg10 mi
4:50 am68 °FClear.8 mph88%29.92 "Hg10 mi
4:20 am68 °FClear.9 mph88%29.92 "Hg10 mi
3:50 am70 °FScattered showers. Passing clouds.6 mph83%29.92 "HgN/A
3:20 am70 °FSprinkles. Passing clouds.5 mph83%29.92 "HgN/A
2:50 am70 °FSprinkles. Passing clouds.3 mph83%29.92 "HgN/A
2:20 am68 °FScattered showers. Passing clouds.6 mph83%29.92 "HgN/A
1:50 am70 °FClear.3 mph78%29.92 "Hg10 mi
1:20 am70 °FClear.6 mph78%29.92 "Hg10 mi
12:50 am68 °FPassing clouds.3 mph88%29.92 "HgN/A
12:20 am70 °FClear.5 mph83%29.92 "Hg10 mi
11:50 pm
Thu, Aug 13
68 °FClear.2 mph94%29.92 "Hg10 mi
11:20 pm70 °FClear.6 mph83%29.92 "Hg10 mi
10:50 pm70 °FClear.6 mph83%29.92 "Hg10 mi
10:20 pm70 °FPassing clouds.7 mph83%29.92 "HgN/A
9:50 pm72 °FScattered showers. Passing clouds.10 mph78%29.92 "HgN/A
9:20 pm70 °FScattered showers. Passing clouds.8 mph88%29.92 "HgN/A
8:50 pm70 °FSprinkles. Passing clouds.10 mph88%29.92 "HgN/A
8:20 pm70 °FSprinkles. Scattered clouds.6 mph83%29.95 "HgN/A
7:50 pm72 °FRain showers. Scattered clouds.8 mph78%29.95 "HgN/A
7:20 pm75 °FThunderstorms. Partly sunny.5 mph69%29.95 "HgN/A
6:50 pm81 °FThundershowers. Passing clouds.8 mph51%29.92 "HgN/A
6:20 pm82 °FSunny.9 mph48%29.92 "Hg10 mi
5:50 pm82 °FSunny.10 mph48%29.92 "Hg10 mi
5:20 pm82 °FSunny.13 mph48%29.92 "Hg10 mi
4:50 pm84 °FSunny.13 mph45%29.92 "Hg10 mi
4:20 pm86 °FSunny.12 mph40%29.92 "Hg10 mi
3:50 pm86 °FSunny.12 mph38%29.92 "Hg10 mi
3:20 pm86 °FPassing clouds.10 mph40%29.92 "HgN/A
2:50 pm88 °FPassing clouds.13 mph38%29.92 "HgN/A
2:20 pm86 °FPassing clouds.9 mph38%29.92 "HgN/A
1:50 pm88 °FPassing clouds.8 mph40%29.92 "HgN/A
1:20 pm86 °FPassing clouds.9 mph43%29.95 "HgN/A
12:50 pm84 °FPassing clouds.13 mph45%29.95 "HgN/A
12:20 pm82 °FPassing clouds.10 mph48%29.95 "HgN/A
11:50 am82 °FPassing clouds.10 mph48%29.95 "HgN/A
11:20 am81 °FPassing clouds.5 mph54%29.95 "HgN/A
Weather by CustomWeather, © 2020

See weather overview